Location: Hannover
(52.3723°N, 9.7339°E)
Time: 21:35:58
(UTC+01:00)

ISS - Pass Details

Date: 12 February 2018
Orbit: 402 x 407 km, 51.6° (Epoch: 24 February)

Event Time Altitude Azimuth Distance (km) Brightness Sun altitude
Rises 18:31:25 0° 279° (W) 2,321 1.6 -10.1°
Reaches altitude 10° 18:34:03 10° 256° (WSW) 1,458 0.6 -10.5°
Maximum altitude 18:36:06 16° 217° (SW) 1,161 -0.9 -10.8°
Drops below altitude 10° 18:38:09 10° 178° (S) 1,454 -0.9 -11.1°
Sets 18:40:47 0° 155° (SSE) 2,309 -0.2 -11.5°
